Simultaneous Nadir Overpasses (SNOs) Predictions

Prediction of SNOs between GOES-16 and METOP-B Satellite Orbit:

Table of predicted SNOs for the next 14.0 days since TLE Epoch: 4/6/2017
Index Date Time (GOES-16) GOES-16 Lat,Lon METOP-B Lat,Lon Distance(km) Time Diff (sec)
1 04/07/2017 03:46:56 -0.02, -89.47 -0.92, -93.39 447.80 80
2 04/08/2017 03:23:36 -0.02, -89.47 0.20, -88.40 122.01 80
3 04/09/2017 15:42:27 0.02, -89.51 0.81, -92.96 393.32 80
4 04/10/2017 15:24:28 0.02, -89.52 -0.31, -87.97 177.08 80
5 04/12/2017 03:43:28 -0.02, -89.52 -0.72, -92.56 347.86 80
6 04/13/2017 03:20:09 -0.02, -89.53 0.40, -87.57 222.42 80
7 04/14/2017 15:39:00 0.02, -89.57 0.61, -92.13 292.63 80
8 04/15/2017 15:21:01 0.02, -89.59 -0.51, -87.14 278.02 80
9 04/17/2017 03:40:01 -0.01, -89.58 -0.52, -91.74 246.23 80
10 04/18/2017 03:16:42 -0.01, -89.60 0.61, -86.75 324.24 80
11 04/19/2017 15:35:33 0.01, -89.64 0.40, -91.31 190.74 80
12 04/20/2017 15:17:33 0.01, -89.66 -0.72, -86.32 380.20 80




NCC Satellite Simultaneous Nadir Overpasses (SNOs) Prediction Service
